Temp
59 58 57 58 58 57 56 54 52 49 45 42 39 39 38 38 40 43 41 42 41 42 42 42 41 41 40 39 39 39 38 38 35 34 39 38 37 36 35 35 36 36 36
58 56 56 56 55 54 54 53 49 45 42 40 39 38 37 38 40 41 41 42 41 39 40 39 39 40 38 37 37 36 36 36 35 32 34 34 33 36 35 34 34 35 34
56 54 54 53 53 51 49 47 44 43 40 38 37 36 37 38 38 38 39 39 41 39 39 38 36 36 35 35 36 35 35 33 34 32 32 33 33 33 32 33 33 33 35
53 53 51 50 50 49 47 43 41 39 38 37 36 36 36 36 37 35 35 36 37 37 37 37 36 35 34 34 34 33 32 31 31 30 30 31 31 33 31 29 29 32 31
51 50 50 49 49 47 44 40 39 37 37 36 35 34 34 34 35 34 35 35 35 35 35 36 35 35 36 35 33 32 31 30 29 29 29 29 30 29 28 30 28 29 30
50 48 48 46 42 41 40 38 37 35 35 34 34 34 33 34 37 38 36 35 35 35 33 33 34 32 34 37 37 36 34 29 28 28 28 27 29 29 30 29 27 25 22
44 43 42 41 38 39 38 37 36 35 34 33 34 33 32 33 36 38 37 34 34 33 33 32 30 31 31 32 36 36 35 36 35 32 29 29 28 30 30 28 27 26 25
40 38 39 38 36 37 37 36 35 34 33 33 33 33 32 32 35 38 36 33 32 31 32 32 32 29 29 30 29 29 30 31 33 33 31 31 32 31 30 28 27 26 28
38 38 37 37 35 36 34 34 35 33 32 31 32 31 31 31 37 37 35 32 32 32 32 32 32 30 31 31 27 26 28 30 34 35 36 36 36 36 34 28 24 24 21
38 38 38 36 34 34 34 34 34 33 32 31 30 31 30 30 38 36 34 33 29 29 29 29 31 30 32 33 28 26 25 27 27 26 28 31 33 33 35 31 28 23 22
35 35 34 34 33 34 34 34 32 31 30 30 28 29 29 30 33 35 34 31 30 29 28 28 29 33 33 33 33 28 28 31 29 27 26 26 27 27 27 28 28 25 23
34 33 32 32 33 33 32 31 31 30 28 27 27 27 28 28 32 34 34 33 33 30 30 31 30 33 34 34 33 33 33 32 29 27 25 25 25 25 27 26 25 25 24
30 29 30 31 31 32 31 30 30 29 29 28 27 27 27 28 29 33 35 35 33 31 32 33 34 34 35 34 35 34 32 30 29 28 26 27 26 25 25 22 23 22 22
29 29 29 29 30 30 32 31 31 30 29 29 28 28 28 27 27 29 32 34 34 33 34 33 34 34 33 33 31 33 32 31 30 28 27 25 24 21 19 21 19 19 16
30 30 31 30 31 30 30 31 30 31 32 30 30 30 28 26 27 30 31 32 33 34 33 32 31 30 30 29 29 29 29 28 25 26 24 22 21 20 20 19 17 15 12
29 30 31 31 31 30 30 29 33 33 33 34 34 33 31 34 34 33 33 34 35 36 32 31 30 29 30 29 27 26 26 25 25 24 21 20 19 18 16 16 16 11 9
31 30 31 30 30 30 29 29 28 30 33 34 34 34 35 34 35 36 34 34 35 35 29 29 29 28 27 27 26 25 23 22 20 20 18 17 17 15 12 11 11 8 5
31 31 32 31 32 31 31 31 31 30 29 27 31 31 31 31 32 34 34 34 30 32 30 28 25 25 25 24 23 21 19 15 15 16 15 14 12 9 7 6 6 1 0
28 27 29 29 28 29 29 29 29 30 29 29 25 27 20 30 30 31 31 29 28 27 23 23 24 22 20 19 18 16 15 15 14 12 11 8 4 4 2 1 2 0 -1
18 18 22 24 24 24 25 25 25 25 25 25 24 25 22 24 22 20 19 20 20 20 18 17 16 16 16 15 13 12 10 7 5 5 2 4 3 2 -0 -4 -3 -3 -4
18 17 17 19 18 18 19 18 19 20 21 21 19 16 19 18 21 18 15 15 15 14 13 14 12 11 11 10 9 8 7 6 4 3 3 2 -2 -5 -4 -1 -4 -5 -5
16 15 14 15 15 13 14 15 15 15 15 15 13 15 18 15 14 14 13 11 9 8 7 9 9 8 7 6 4 3 2 3 4 1 -1 -5 -6 -6 -6 -4 -6 -5 -6
15 14 13 12 12 12 12 11 11 12 11 10 10 10 10 10 8 9 8 6 5 4 3 3 4 3 2 1 3 4 2 0 -1 -3 -6 -6 -8 -7 -7 -7 -7 -9 -9
12 11 10 9 8 10 9 8 8 6 7 7 7 6 6 5 5 5 4 4 3 2 -0 -2 -2 -0 1 1 -0 -2 -3 -6 -7 -8 -9 -8 -9 -9 -9 -9 -9 -9 -9
7 7 6 6 5 6 7 7 6 5 5 5 4 4 3 2 1 1 0 -2 -5 -3 -1 -3 -2 -1 -2 -4 -4 -4 -2 0 -8 -5 -6 -9 -9 -13 -14 -14 -13 -12 -12
5 5 5 5 5 4 4 4 3 3 2 2 2 2 1 -0 -0 -1 -1 -3 -4 -3 -2 -2 -2 -3 -4 -4 -4 -2 -2 -0 -4 -3 -6 -7 -8 -11 -13 -15 -17 -17 -16
MSLP
1012.19 1012.77 1013.10 1013.39 1013.66 1014.19 1014.58 1015.16 1015.73 1016.35 1016.87 1017.45 1018.24 1018.95 1019.60 1020.04 1020.56 1021.13 1021.72 1021.88 1022.57 1023.12 1023.72 1024.14 1024.98 1025.87 1026.65 1027.24 1027.79 1028.11 1028.51 1028.67 1029.48 1030.66 1030.74 1031.27 1031.91 1032.31 1032.76 1032.96 1032.88 1033.07 1032.88
1011.98 1012.45 1012.73 1013.13 1013.68 1014.14 1014.57 1015.16 1015.73 1016.42 1017.13 1017.70 1018.40 1019.04 1019.63 1020.03 1020.36 1020.61 1021.36 1021.48 1022.07 1022.44 1023.28 1024.21 1024.49 1025.25 1026.10 1026.81 1027.24 1027.70 1028.27 1028.85 1029.15 1030.00 1030.79 1031.26 1031.71 1031.89 1032.19 1032.44 1032.62 1032.62 1032.60
1011.87 1012.35 1012.54 1012.88 1013.35 1013.91 1014.48 1015.16 1015.81 1016.44 1017.14 1017.81 1018.44 1019.06 1019.61 1020.02 1020.45 1020.97 1021.48 1022.01 1022.17 1022.56 1023.02 1023.94 1024.91 1025.44 1026.20 1026.85 1027.40 1028.03 1028.43 1028.70 1029.10 1029.63 1030.58 1031.14 1031.59 1031.81 1032.10 1032.12 1032.10 1032.13 1032.05
1011.72 1011.96 1012.14 1012.63 1013.10 1013.95 1014.60 1015.13 1015.69 1016.28 1016.91 1017.53 1018.07 1018.61 1019.23 1019.88 1020.36 1021.04 1021.72 1022.33 1022.85 1023.16 1023.62 1024.10 1024.58 1025.03 1025.83 1026.75 1027.46 1028.11 1028.60 1029.22 1029.07 1029.95 1030.32 1030.65 1031.01 1031.28 1031.73 1031.77 1031.57 1031.31 1031.44
1011.39 1011.67 1011.92 1012.42 1013.04 1013.59 1014.07 1014.85 1015.48 1016.11 1016.76 1017.38 1017.95 1018.43 1018.92 1019.51 1020.06 1020.67 1021.30 1022.30 1022.86 1023.43 1024.11 1024.67 1025.41 1025.89 1025.93 1026.35 1026.98 1027.90 1028.54 1029.01 1029.37 1030.08 1030.30 1030.63 1030.73 1030.97 1031.18 1031.01 1031.16 1031.06 1030.92
1010.98 1011.35 1011.87 1012.40 1013.06 1013.59 1014.04 1014.60 1015.09 1015.71 1016.44 1017.23 1017.85 1018.41 1018.80 1019.14 1019.52 1020.22 1021.12 1022.01 1022.66 1023.10 1023.73 1024.74 1025.37 1026.34 1026.70 1026.84 1027.14 1027.62 1028.21 1028.38 1029.22 1029.74 1029.89 1030.16 1030.37 1030.66 1030.74 1030.91 1030.90 1030.85 1030.73
1010.41 1010.91 1011.58 1012.18 1012.87 1013.37 1013.93 1014.52 1015.10 1015.90 1016.20 1016.81 1017.61 1018.25 1018.68 1019.11 1019.87 1020.46 1021.03 1021.65 1022.81 1023.24 1023.36 1024.11 1024.92 1026.08 1027.22 1027.38 1027.22 1027.62 1028.10 1028.27 1028.36 1028.91 1029.30 1029.27 1029.52 1029.84 1030.32 1030.33 1030.53 1030.62 1030.39
1010.23 1010.74 1011.29 1011.96 1012.57 1013.03 1013.58 1014.10 1014.74 1015.34 1016.04 1016.47 1017.04 1017.71 1018.63 1019.20 1019.65 1020.39 1021.17 1021.80 1022.49 1023.13 1023.79 1024.42 1024.79 1025.58 1026.52 1027.13 1027.81 1028.07 1028.05 1028.46 1028.30 1028.34 1028.92 1028.93 1029.00 1029.42 1029.80 1029.79 1030.11 1030.20 1030.02
1010.50 1010.85 1011.18 1011.72 1012.42 1012.94 1013.43 1014.04 1014.52 1015.12 1015.83 1016.42 1016.85 1017.39 1017.84 1018.71 1019.51 1019.92 1020.69 1021.71 1022.34 1023.15 1023.76 1024.06 1024.37 1025.17 1025.78 1026.50 1027.24 1028.01 1027.93 1027.75 1027.97 1028.02 1028.34 1028.64 1028.61 1028.68 1029.05 1029.61 1029.86 1029.85 1029.37
1010.89 1011.31 1011.59 1011.93 1012.17 1012.76 1013.02 1013.61 1014.22 1015.00 1015.68 1016.11 1016.78 1017.29 1017.81 1018.35 1019.15 1020.17 1020.65 1021.01 1022.40 1023.07 1023.60 1023.97 1024.00 1024.20 1024.80 1025.74 1026.44 1027.28 1027.56 1027.11 1027.41 1027.93 1028.17 1028.43 1028.28 1028.18 1028.20 1028.52 1028.93 1029.07 1029.19
1011.03 1011.16 1011.78 1012.24 1012.76 1012.76 1013.25 1013.85 1014.53 1015.16 1015.75 1016.12 1016.65 1017.13 1017.59 1017.88 1018.76 1019.70 1020.13 1020.70 1021.21 1021.96 1022.43 1022.94 1023.38 1023.82 1024.45 1025.14 1025.64 1026.35 1026.50 1026.58 1026.78 1027.13 1027.48 1027.77 1027.78 1027.75 1027.89 1028.15 1028.42 1028.75 1028.80
1011.39 1011.81 1012.01 1012.49 1012.95 1013.08 1013.55 1014.14 1014.68 1015.31 1015.83 1016.51 1017.12 1017.51 1017.81 1017.99 1018.66 1019.26 1019.81 1020.42 1021.05 1021.61 1021.90 1022.34 1022.85 1023.42 1023.91 1024.29 1024.86 1025.09 1025.57 1025.82 1026.21 1026.37 1026.53 1026.71 1026.78 1026.84 1027.03 1027.53 1028.05 1028.43 1028.66
1011.84 1012.12 1012.70 1013.29 1013.45 1013.81 1013.77 1014.38 1015.21 1015.66 1016.16 1016.61 1017.25 1017.30 1017.71 1017.95 1018.55 1019.15 1019.51 1019.94 1020.77 1021.66 1021.57 1021.85 1022.41 1023.02 1023.30 1023.47 1023.88 1023.94 1024.58 1024.94 1025.31 1025.41 1025.35 1025.49 1025.82 1026.12 1026.80 1027.52 1027.83 1028.11 1028.38
1012.18 1012.53 1012.89 1013.34 1013.99 1014.46 1014.50 1014.58 1015.12 1015.59 1016.08 1016.63 1016.79 1017.18 1017.53 1018.05 1018.60 1018.95 1019.26 1019.75 1020.46 1021.22 1021.57 1021.57 1022.08 1022.49 1022.83 1022.95 1023.36 1023.28 1023.71 1024.01 1024.22 1024.39 1024.69 1025.15 1025.69 1026.35 1026.88 1027.13 1027.55 1027.96 1028.14
1012.43 1012.85 1013.20 1013.68 1014.17 1014.71 1015.02 1015.14 1015.11 1015.39 1015.73 1016.25 1016.48 1017.09 1017.39 1017.64 1017.77 1018.50 1018.83 1019.18 1019.68 1020.27 1021.11 1021.43 1021.51 1021.82 1022.18 1022.38 1022.63 1022.81 1023.08 1023.36 1023.72 1024.09 1024.61 1025.09 1025.62 1026.10 1026.48 1026.87 1027.37 1027.72 1027.91
1012.95 1013.13 1013.27 1013.74 1014.29 1014.68 1015.15 1015.18 1015.37 1015.75 1016.10 1016.34 1016.56 1016.93 1017.07 1017.19 1017.40 1017.64 1018.08 1018.64 1019.14 1019.86 1020.44 1020.61 1020.70 1021.09 1021.31 1021.60 1021.90 1022.25 1022.64 1022.95 1023.35 1023.85 1024.44 1024.92 1025.44 1025.96 1026.42 1026.83 1027.23 1027.57 1027.77
1013.23 1013.48 1013.90 1013.98 1014.33 1014.95 1015.34 1015.69 1015.91 1016.25 1016.35 1016.44 1016.62 1016.78 1016.93 1017.24 1017.47 1017.42 1017.53 1017.96 1018.69 1019.46 1019.63 1019.88 1020.10 1020.56 1020.93 1021.26 1021.56 1021.97 1022.51 1022.94 1023.45 1024.04 1024.56 1025.09 1025.57 1026.00 1026.56 1027.05 1027.32 1027.54 1027.71
1013.83 1014.12 1014.17 1014.42 1014.70 1015.07 1015.56 1016.00 1016.23 1016.44 1016.55 1017.15 1017.14 1017.13 1017.40 1017.62 1017.95 1017.39 1017.35 1017.96 1018.49 1018.78 1019.18 1019.48 1019.92 1020.46 1020.83 1021.36 1021.76 1022.20 1022.67 1023.41 1023.86 1024.35 1024.87 1025.29 1025.72 1026.22 1026.66 1026.99 1027.29 1027.58 1027.83
1014.12 1014.42 1014.88 1015.24 1015.54 1015.80 1016.26 1016.75 1016.90 1016.94 1017.07 1017.63 1018.15 1018.21 1018.32 1018.20 1018.46 1018.41 1018.23 1018.42 1018.75 1019.12 1019.66 1020.07 1020.26 1020.59 1021.10 1021.69 1022.12 1022.54 1022.97 1023.50 1024.06 1024.53 1024.99 1025.47 1026.02 1026.48 1026.91 1027.25 1027.53 1027.83 1028.11
1015.37 1015.44 1015.73 1016.43 1016.80 1017.20 1017.12 1017.49 1017.95 1018.09 1018.22 1018.67 1018.73 1018.69 1018.71 1018.94 1019.27 1019.49 1019.90 1020.16 1020.05 1020.19 1020.65 1020.95 1021.25 1021.53 1021.92 1022.38 1022.87 1023.33 1023.73 1024.21 1024.63 1025.06 1025.39 1025.79 1026.16 1026.46 1026.86 1027.31 1027.65 1028.03 1028.10
1016.28 1016.64 1016.83 1017.03 1017.79 1018.10 1018.23 1018.18 1018.99 1019.30 1019.23 1019.18 1019.47 1019.84 1019.93 1019.79 1019.76 1020.25 1020.72 1021.03 1021.24 1021.37 1021.63 1021.78 1022.08 1022.38 1022.74 1023.10 1023.45 1023.75 1024.06 1024.32 1024.70 1025.10 1025.50 1025.93 1026.28 1026.74 1027.05 1027.14 1027.23 1027.53 1027.82
1017.18 1017.50 1017.60 1017.76 1018.51 1019.02 1019.24 1019.63 1019.95 1019.71 1019.75 1020.04 1020.40 1020.53 1020.50 1020.69 1020.71 1020.93 1021.31 1021.74 1022.25 1022.55 1022.63 1022.62 1022.80 1023.07 1023.39 1023.66 1023.90 1024.07 1024.27 1024.52 1024.71 1025.15 1025.49 1025.84 1026.28 1026.60 1026.79 1027.02 1027.27 1027.43 1027.62
1018.12 1018.38 1018.75 1018.93 1019.44 1020.19 1020.42 1020.48 1020.31 1020.51 1020.55 1020.91 1021.11 1021.31 1021.35 1021.71 1021.74 1021.71 1022.08 1022.60 1023.00 1023.19 1023.32 1023.40 1023.35 1023.54 1023.75 1023.98 1023.98 1024.01 1024.16 1024.37 1024.58 1024.93 1025.48 1025.80 1026.15 1026.26 1026.42 1026.70 1027.06 1027.52 1027.64
1019.63 1019.56 1019.74 1019.95 1020.67 1021.00 1021.22 1021.40 1021.37 1021.22 1021.18 1021.41 1021.71 1021.89 1022.06 1022.20 1022.22 1022.15 1022.46 1022.82 1022.96 1023.03 1023.23 1023.45 1023.55 1023.53 1023.58 1023.76 1023.94 1024.14 1024.32 1024.51 1024.61 1024.89 1025.18 1025.49 1025.69 1025.93 1026.02 1026.22 1026.61 1026.91 1027.21
1020.56 1020.50 1020.70 1021.13 1021.57 1021.92 1021.95 1021.79 1021.55 1021.58 1021.77 1022.00 1022.28 1022.29 1022.43 1022.56 1022.49 1022.48 1022.65 1022.87 1023.10 1023.08 1022.97 1023.09 1023.15 1023.15 1023.32 1023.54 1023.70 1023.82 1024.00 1024.24 1024.59 1024.77 1024.85 1025.11 1025.37 1025.43 1025.66 1026.00 1026.31 1026.54 1026.75
1021.25 1021.38 1021.67 1021.98 1022.33 1022.32 1022.14 1022.05 1022.11 1022.33 1022.53 1022.55 1022.59 1022.73 1022.73 1022.64 1022.58 1022.56 1022.63 1022.76 1022.81 1022.69 1022.61 1022.53 1022.49 1022.57 1022.77 1022.87 1022.97 1023.17 1023.43 1023.61 1023.95 1024.00 1024.28 1024.53 1024.73 1024.93 1025.18 1025.49 1025.95 1026.22 1026.48
Wind_Speed
9 10 10 10 11 10 10 9 9 8 9 10 10 10 11 11 11 12 9 12 11 11 10 11 10 10 7 6 4 4 3 3 5 1 2 5 5 5 4 6 3 4 4
9 10 11 11 10 10 10 9 7 7 7 8 9 9 9 10 12 12 12 13 13 13 12 10 12 9 10 8 6 6 5 2 3 6 3 4 5 5 3 4 4 3 5
9 10 11 11 11 11 9 7 7 8 8 7 8 9 10 10 10 7 6 7 9 11 13 12 11 10 9 7 6 6 5 3 3 3 3 2 2 2 4 4 5 4 4
9 10 11 10 10 9 8 8 8 8 8 9 9 9 9 8 8 6 7 5 6 7 7 9 11 11 11 10 7 7 5 4 4 3 2 3 4 3 3 3 4 2 4
10 10 10 9 9 9 8 8 8 8 8 8 8 8 8 10 7 9 9 8 7 8 6 6 6 5 12 11 8 7 7 4 4 4 2 2 3 3 4 2 2 4 5
10 10 8 7 6 6 6 8 9 9 8 8 9 10 10 7 17 19 13 9 9 11 10 7 7 7 9 13 11 12 10 8 7 4 4 4 5 3 3 3 2 2 2
9 7 6 7 8 8 7 8 8 8 8 9 9 9 10 9 20 20 18 10 9 8 10 11 9 6 5 5 9 9 8 11 8 6 5 7 4 5 4 4 4 5 6
8 6 6 7 8 8 9 9 8 8 9 8 8 8 8 8 21 21 18 10 8 7 8 9 9 10 8 7 6 6 8 9 9 6 7 6 6 3 5 4 5 6 7
5 6 7 8 8 8 9 8 7 7 6 7 7 8 9 8 21 24 18 10 9 9 8 8 9 9 13 14 8 8 9 8 9 14 15 16 15 14 11 3 6 7 5
3 4 5 5 7 8 8 8 7 6 6 6 7 7 8 8 19 22 17 8 9 7 7 8 14 11 17 19 10 9 10 8 6 5 5 10 14 11 16 10 6 6 6
4 5 4 4 4 5 6 4 6 7 7 7 8 7 9 11 15 25 23 10 10 10 10 9 7 17 16 19 18 10 11 6 10 7 7 6 6 5 4 4 5 6 6
5 5 5 5 4 5 7 6 6 7 7 7 7 5 5 7 12 22 25 18 14 9 10 7 7 18 20 19 16 19 22 15 6 7 6 7 7 6 6 5 5 5 5
6 6 6 5 5 5 7 7 5 5 4 5 5 5 5 5 6 18 20 21 17 9 5 8 12 15 19 16 23 20 18 9 8 8 8 7 5 3 3 2 3 3 5
7 7 6 6 6 4 4 5 5 5 4 4 4 4 4 5 5 5 6 10 16 12 9 5 8 10 11 11 9 12 9 8 8 6 5 3 4 3 3 3 3 2 3
7 6 6 5 5 5 3 3 3 2 4 4 4 4 6 6 7 11 10 8 8 10 7 6 6 7 8 7 8 7 7 5 4 3 3 3 4 4 3 2 2 2 4
6 5 5 5 5 4 3 4 4 3 6 6 6 6 3 5 12 18 18 18 17 17 7 8 8 8 9 8 8 6 5 6 5 4 3 2 3 3 2 1 0 1 2
5 5 4 4 5 4 4 3 3 2 5 7 7 8 7 4 8 13 16 17 17 15 7 8 8 7 5 3 3 5 5 3 4 3 3 4 3 2 1 2 2 1 1
6 5 4 4 3 3 3 2 2 3 3 2 7 6 3 0 4 7 9 11 7 11 7 6 4 4 3 3 3 2 4 4 3 4 3 3 2 2 2 2 1 1 0
5 5 5 5 5 4 4 3 1 1 1 1 1 2 5 3 3 3 2 3 3 2 2 1 1 2 2 1 2 2 3 4 4 4 3 2 2 2 1 1 1 2 2
7 10 7 4 4 4 4 3 1 1 0 1 0 2 3 3 1 3 4 3 3 3 2 2 2 2 2 2 3 3 3 3 3 2 2 3 3 3 3 3 3 2 3
5 6 6 7 6 5 5 6 4 2 2 3 5 5 4 3 4 3 2 2 3 3 2 2 2 1 1 1 2 3 2 3 3 3 3 2 2 2 2 2 2 3 3
5 6 6 6 5 5 4 4 3 4 4 3 3 3 6 3 3 3 2 3 3 3 3 3 1 1 1 2 2 2 3 3 4 3 3 3 3 3 3 2 2 2 2
6 6 6 6 5 4 4 4 4 4 4 4 3 3 3 3 3 3 3 3 2 1 1 1 1 1 1 1 1 2 3 3 3 4 4 4 3 3 3 3 3 3 2
6 6 6 6 5 4 4 3 3 4 4 3 2 2 2 1 1 1 0 1 1 1 2 2 2 3 2 3 3 2 1 1 2 3 4 3 4 4 2 3 3 4 3
6 6 6 5 4 3 2 3 3 3 3 2 2 1 1 1 1 2 1 2 2 2 3 3 3 5 6 7 5 5 5 7 5 5 3 4 4 5 4 3 3 3 4
6 5 4 3 3 2 3 3 3 3 2 2 2 2 2 2 2 2 2 3 3 4 5 4 5 7 7 6 8 9 9 11 9 10 6 5 5 4 4 5 6 3 4
Wind_Direction
209 219 222 225 220 218 220 207 200 184 175 167 170 171 173 170 172 177 176 163 164 160 164 157 146 143 139 136 125 115 100 92 123 95 126 143 172 200 187 215 227 272 290
210 218 218 218 217 222 217 209 187 183 171 170 172 178 179 184 182 176 177 173 172 160 161 154 148 145 143 147 139 140 140 141 128 137 152 164 199 184 216 245 243 223 252
212 218 221 219 215 215 209 196 171 167 167 161 165 176 181 181 174 161 170 169 171 162 158 155 150 147 143 143 143 142 140 128 110 105 137 138 195 188 225 236 237 245 247
213 219 220 217 212 207 201 185 170 165 165 171 179 179 175 170 165 148 142 143 157 148 147 148 155 155 148 150 150 158 141 144 115 143 164 179 191 174 181 236 250 220 276
214 220 224 215 210 201 185 173 166 165 177 176 168 167 164 169 165 151 141 158 150 135 124 129 142 145 152 158 156 157 148 157 144 182 190 191 200 191 209 185 252 279 285
217 222 217 209 186 194 175 172 170 168 164 163 176 175 175 177 171 174 161 151 151 153 146 148 144 143 162 172 171 167 178 156 175 182 196 212 222 212 206 228 246 274 298
203 203 194 178 180 183 171 168 173 179 165 179 182 180 186 179 182 181 163 148 160 165 156 157 143 151 167 166 181 193 207 206 200 194 206 210 206 202 208 231 242 246 254
194 186 178 168 176 176 174 179 175 167 175 175 179 179 176 181 179 181 162 153 152 157 169 174 157 154 167 151 153 208 217 223 227 216 222 228 230 227 219 216 238 262 267
192 192 182 177 176 176 181 180 171 160 166 170 166 166 171 173 188 184 168 163 157 169 170 171 158 156 174 180 188 214 225 226 227 232 242 251 250 247 233 219 241 248 256
194 193 175 172 171 178 173 170 162 165 157 145 150 160 154 159 182 184 176 156 163 165 169 180 180 175 182 197 194 206 227 222 190 218 254 268 266 262 260 249 250 251 257
113 116 118 140 156 152 143 134 143 144 143 147 150 155 156 161 177 191 179 183 178 181 187 189 188 196 197 207 208 209 225 203 209 213 221 230 230 226 228 233 231 234 248
111 101 97 114 124 129 129 128 133 139 140 147 147 153 160 164 191 204 196 193 194 193 195 194 193 200 213 218 219 222 231 232 217 205 212 223 224 214 207 205 209 232 249
91 87 87 83 95 116 122 122 125 137 141 151 171 174 181 170 191 213 206 196 201 214 195 196 199 210 222 222 234 228 232 227 225 223 219 221 200 145 114 126 200 244 264
100 98 102 108 107 103 108 135 139 157 159 166 173 192 177 172 179 195 204 208 211 209 214 202 201 211 221 226 232 232 230 222 222 223 222 121 117 127 174 193 209 237 257
105 107 102 104 110 116 92 127 126 120 163 174 184 195 188 194 192 185 188 195 201 208 186 196 206 222 235 231 230 220 211 188 176 161 163 167 173 183 202 175 197 212 241
112 117 121 124 122 114 123 105 74 115 202 211 201 201 203 212 184 194 198 207 209 209 214 230 234 238 241 233 220 205 194 191 183 163 149 155 180 193 188 196 250 248 274
103 106 109 115 120 127 125 145 137 121 188 199 209 207 220 227 228 212 210 211 217 214 219 226 232 229 224 216 196 185 184 163 126 149 161 172 173 194 160 213 235 254 266
88 86 109 100 97 101 110 128 119 157 146 78 52 55 77 147 267 217 204 209 211 221 225 223 188 191 183 205 176 152 129 129 144 156 165 166 152 162 187 208 216 204 253
88 72 52 52 42 49 51 42 17 339 243 153 70 65 11 19 338 309 241 248 223 198 84 50 124 124 115 125 122 114 137 158 164 160 166 144 137 159 181 185 195 203 213
70 58 63 72 81 69 70 69 53 6 320 251 271 19 55 72 4 50 33 18 20 48 71 79 67 74 96 115 127 142 149 146 149 156 156 156 165 173 172 173 185 207 212
78 80 67 71 60 53 47 52 35 34 45 36 52 30 46 358 68 70 69 45 28 42 42 32 79 83 88 116 140 162 176 173 164 165 162 164 148 162 186 217 192 191 209
67 63 62 68 61 57 63 64 56 62 56 49 61 33 38 46 51 55 49 53 50 35 30 24 59 81 145 174 179 175 179 197 169 170 169 155 159 179 181 189 192 209 208
64 76 73 69 72 76 70 53 51 52 63 58 41 41 34 30 31 33 35 46 48 50 70 18 303 164 157 212 207 217 198 194 184 159 164 167 180 195 171 177 181 188 205
58 67 71 70 46 54 46 54 74 69 54 53 40 36 28 22 345 25 167 234 206 205 170 192 222 235 214 206 200 208 252 319 117 163 165 172 181 184 185 166 180 199 205
51 57 56 57 51 44 52 44 51 43 39 20 5 350 348 294 284 266 249 199 212 231 223 206 221 227 226 219 218 215 206 218 187 196 176 183 194 188 171 171 184 195 192
50 54 55 55 56 35 27 20 20 13 356 351 340 313 296 286 274 263 246 222 221 230 236 232 227 226 229 228 225 223 224 222 218 212 193 192 191 189 177 177 197 187 192